Regional Weather Roundup
Issued by NWS

Home | Current Version | Previous Version | Graphics & Text | Print | Product List | Glossary On
Versions: 1 2 3 4 5 6 7 8 9 10 11 12 13 14 15 16 17 18 19 20 21 22 23 24 25 26 27 28 29 30 31 32 33 34 35 36 37 38 39 40 41 42 43 44 45 46 47 48 49 50
241
ASUS43 KOAX 241202
RWRNE

WEATHER ROUNDUP FOR NEBRASKA
NATIONAL WEATHER SERVICE OMAHA NE
700 AM CDT MON JUL 24 2017

NOTES: SATELLITE DATA IS BEING USED TO AUGMENT CLOUD COVER ABOVE
       12000 FEET.
       "FAIR" INDICATES FEW OR NO CLOUDS BELOW 12,000 FEET WITH NO
       SIGNIFICANT WEATHER AND/OR OBSTRUCTIONS TO VISIBILITY.


NEZ001>004-019>022-054>056-241300-
NEBRASKA PANHANDLE

CITY           SKY/WX    TMP DP  RH WIND       PRES   REMARKS
SCOTTSBLUFF    CLOUDY    76  57  51 S9        29.97F
6HR MIN TEMP:  75; 6HR MAX TEMP:  80;

ALLIANCE       CLEAR     70  56  61 SW14      29.99S
6HR MIN TEMP:  65; 6HR MAX TEMP:  75;

CHADRON        PTCLDY    76  52  43 N12       29.92R
6HR MIN TEMP:  72; 6HR MAX TEMP:  81;

GORDON         FAIR      59  55  88 NE5       29.96R
6HR MIN TEMP:  59; 6HR MAX TEMP:  73;

KIMBALL        CLEAR     65  59  80 S7        30.07R
SIDNEY         CLEAR     68  58  70 S12       30.05F
6HR MIN TEMP:  61; 6HR MAX TEMP:  74;

$$

NEZ057>060-069>072-079>082-241300-
SOUTHWEST NEBRASKA

CITY           SKY/WX    TMP DP  RH WIND       PRES   REMARKS
NORTH PLATTE   CLEAR     63  62  97 E5        30.02S FOG
6HR MIN TEMP:  63; 6HR MAX TEMP:  69;

IMPERIAL       CLEAR     62  55  77 CALM      30.03S
6HR MIN TEMP:  60; 6HR MAX TEMP:  71;

LEXINGTON      PTCLDY    66  62  86 SE6       30.03S
MCCOOK         FOG       63  63 100 E3        30.02S VSB<1/4
6HR MIN TEMP:  63; 6HR MAX TEMP:  71;

OGALLALA       CLEAR     62  56  83 CALM      30.03R
$$

NEZ005>010-023>029-035>040-094-241300-
NORTH CENTRAL NEBRASKA

CITY           SKY/WX    TMP DP  RH WIND       PRES   REMARKS
VALENTINE      CLEAR     66  58  75 SE9       29.98F
6HR MIN TEMP:  66; 6HR MAX TEMP:  72;

AINSWORTH      CLEAR     64  60  86 S10       30.01S
BROKEN BOW     CLEAR     63  60  90 SE5       30.03S
6HR MIN TEMP:  63; 6HR MAX TEMP:  68;

O`NEILL        CLEAR     62  60  93 SE6       30.02F
ORD            CLEAR     63  58  83 CALM      30.01F
6HR MIN TEMP:  61; 6HR MAX TEMP:  67;

THEDFORD       CLEAR     65  63  92 SE6       30.02S
$$

NEZ041-046>049-061>064-073>077-083>087-241300-
SOUTH CENTRAL NEBRASKA

CITY           SKY/WX    TMP DP  RH WIND       PRES   REMARKS
GRAND ISLAND   CLEAR     65  62  90 SE8       30.03F
6HR MIN TEMP:  64; 6HR MAX TEMP:  69;

AURORA         PTCLDY    63  62  97 SE6       30.04R
HASTINGS       PTCLDY    68  60  75 SE14      30.04S
6HR MIN TEMP:  67; 6HR MAX TEMP:  73;

HEBRON         CLEAR     66  63  90 CALM      30.03R
HOLDREGE       PTCLDY    65  62  87 SE7       30.04R
KEARNEY        CLEAR     65  62  90 SE5       30.04R
YORK           CLEAR     64  63  94 SE6       30.04R
$$

NEZ011>018-030>034-042>045-241300-
NORTHEAST NEBRASKA

CITY           SKY/WX    TMP DP  RH WIND       PRES   REMARKS
NORFOLK        PTCLDY    61  58  90 CALM      30.04R
6HR MIN TEMP:  59; 6HR MAX TEMP:  65;

ALBION         PTCLDY    62  60  93 SE6       30.04S
BLAIR          CLEAR     63  61  94 NE5       30.04S
COLUMBUS       PTCLDY    61  59  93 E5        30.04S
FREMONT        CLEAR     63  61  92 E3        30.03F
TEKAMAH        CLEAR     59  56  89 N5        30.04S
6HR MIN TEMP:  57; 6HR MAX TEMP:  63;

WAYNE          MOCLDY    57  57  99 CALM      30.04S
$$

NEZ050>053-065>068-078-088>093-241300-
SOUTHEAST NEBRASKA

CITY           SKY/WX    TMP DP  RH WIND       PRES   REMARKS
LINCOLN        CLEAR     63  60  90 CALM      30.04R
6HR MIN TEMP:  62; 6HR MAX TEMP:  70;

OMAHA EPPLEY   CLEAR     62  58  86 N6        30.03R
6HR MIN TEMP:  60; 6HR MAX TEMP:  71;

BEATRICE       CLEAR     65  62  88 E5        30.03R
FALLS CITY     CLEAR     63  61  93 N3        30.01R
6HR MIN TEMP:  62; 6HR MAX TEMP:  71;

NEBRASKA CITY  CLEAR     64  64 100 CALM      30.04R
PLATTSMOUTH    CLEAR     63  60  89 CALM      30.04R
$$

NEZ044-045-051>053-067-241300-
OMAHA AREA

CITY           SKY/WX    TMP DP  RH WIND       PRES   REMARKS
OMAHA EPPLEY   CLEAR     62  58  86 N6        30.03R
6HR MIN TEMP:  60; 6HR MAX TEMP:  71;

BLAIR          CLEAR     63  61  94 NE5       30.04S
FREMONT        CLEAR     63  61  92 E3        30.03F
MILLARD        CLEAR     65  62  90 CALM      30.03S
OFFUTT AFB     CLEAR     62  60  92 NE3       30.03R
PLATTSMOUTH    CLEAR     63  60  89 CALM      30.04R
WAHOO          FAIR      60  59  97 N3        30.04S
$$




USA.gov is the U.S. government's official web portal to all federal, state and local government web resources and services.